Time,TemperatureF,DewpointF,PressureIn,WindDirection,WindDirectionDegrees,WindSpeedMPH,WindSpeedGustMPH,Humidity,HourlyPrecipIn,Conditions,Clouds,dailyrainin,SoftwareType,DateUTC
2013-02-10 00:01:00,30.0,21.0,-100.00,South,189,5.0,8.0,68,0.00,,,-99.99,,2013-02-10 05:01:00,
2013-02-10 00:11:00,29.0,21.0,-100.00,South,187,4.0,8.0,69,0.00,,,-99.99,,2013-02-10 05:11:00,
2013-02-10 00:23:00,30.0,21.0,-100.00,South,190,4.0,8.0,69,0.00,,,-99.99,,2013-02-10 05:23:00,
2013-02-10 00:32:00,27.0,19.0,-100.00,SSW,200,5.0,8.0,68,0.00,,,-99.99,,2013-02-10 05:32:00,
2013-02-10 00:42:00,29.0,21.0,-100.00,South,189,4.0,8.0,69,0.00,,,-99.99,,2013-02-10 05:42:00,
2013-02-10 00:52:00,28.0,19.0,-100.00,SSW,192,4.0,8.0,68,0.00,,,-99.99,,2013-02-10 05:52:00,
2013-02-10 01:02:00,28.0,19.0,-100.00,South,189,4.0,8.0,68,0.00,,,-99.99,,2013-02-10 06:02:00,
2013-02-10 01:11:00,29.0,21.0,-100.00,SSW,193,4.0,8.0,69,0.00,,,-99.99,,2013-02-10 06:11:00,
2013-02-10 01:21:00,29.0,21.0,-100.00,SSW,196,4.0,8.0,69,0.00,,,-99.99,,2013-02-10 06:21:00,
2013-02-10 01:32:00,27.0,19.0,-100.00,South,182,4.0,8.0,69,0.00,,,-99.99,,2013-02-10 06:32:00,
2013-02-10 01:42:00,29.0,21.0,-100.00,South,190,5.0,8.0,69,0.00,,,-99.99,,2013-02-10 06:42:00,
2013-02-10 01:51:00,27.0,19.0,-100.00,South,187,5.0,8.0,69,0.00,,,-99.99,,2013-02-10 06:51:00,
2013-02-10 02:01:00,28.0,19.0,-100.00,SSW,203,4.0,8.0,68,0.00,,,-99.99,,2013-02-10 07:01:00,
2013-02-10 02:11:00,27.0,19.0,-100.00,South,182,3.0,8.0,69,0.00,,,-99.99,,2013-02-10 07:11:00,
2013-02-10 02:21:00,27.0,19.0,-100.00,SSW,194,4.0,8.0,71,0.00,,,-99.99,,2013-02-10 07:21:00,
2013-02-10 02:32:00,27.0,19.0,-100.00,SSW,192,5.0,8.0,68,0.00,,,-99.99,,2013-02-10 07:32:00,
2013-02-10 02:42:00,26.0,19.0,-100.00,South,186,6.0,8.0,69,0.00,,,-99.99,,2013-02-10 07:42:00,
2013-02-10 02:51:00,27.0,18.0,-100.00,South,180,6.0,8.0,68,0.00,,,-99.99,,2013-02-10 07:51:00,
2013-02-10 03:01:00,27.0,19.0,-100.00,South,189,6.0,8.0,69,0.00,,,-99.99,,2013-02-10 08:01:00,
2013-02-10 03:11:00,27.0,19.0,-100.00,SSW,200,5.0,8.0,69,0.00,,,-99.99,,2013-02-10 08:11:00,
2013-02-10 03:21:00,27.0,19.0,-100.00,SSW,200,5.0,8.0,69,0.00,,,-99.99,,2013-02-10 08:21:00,
2013-02-10 03:32:00,27.0,19.0,-100.00,SSW,203,6.0,8.0,69,0.00,,,-99.99,,2013-02-10 08:32:00,
2013-02-10 03:43:00,27.0,19.0,-100.00,SSW,194,5.0,8.0,69,0.00,,,-99.99,,2013-02-10 08:43:00,
2013-02-10 03:52:00,28.0,19.0,-100.00,South,186,6.0,10.0,67,0.00,,,-99.99,,2013-02-10 08:52:00,
2013-02-10 04:02:00,28.0,19.0,-100.00,SW,218,7.0,10.0,67,0.00,,,-99.99,,2013-02-10 09:02:00,
2013-02-10 04:11:00,28.0,19.0,-100.00,SSW,208,8.0,10.0,67,0.00,,,-99.99,,2013-02-10 09:11:00,
2013-02-10 04:21:00,28.0,19.0,-100.00,SSW,200,9.0,12.0,67,0.00,,,-99.99,,2013-02-10 09:21:00,
2013-02-10 04:32:00,28.0,19.0,-100.00,SSW,207,7.0,12.0,68,0.00,,,-99.99,,2013-02-10 09:32:00,
2013-02-10 04:42:00,28.0,19.0,-100.00,SW,220,8.0,12.0,68,0.00,,,-99.99,,2013-02-10 09:42:00,
2013-02-10 04:51:00,29.0,19.0,-100.00,SSW,208,8.0,12.0,66,0.00,,,-99.99,,2013-02-10 09:51:00,
2013-02-10 05:01:00,28.0,19.0,-100.00,SW,220,9.0,12.0,67,0.00,,,-99.99,,2013-02-10 10:01:00,
2013-02-10 05:11:00,28.0,19.0,-100.00,SSW,197,10.0,12.0,67,0.00,,,-99.99,,2013-02-10 10:11:00,
2013-02-10 05:21:00,28.0,19.0,-100.00,SSW,206,9.0,12.0,67,0.00,,,-99.99,,2013-02-10 10:21:00,
2013-02-10 05:32:00,29.0,21.0,-100.00,SSW,210,9.0,12.0,68,0.00,,,-99.99,,2013-02-10 10:32:00,
2013-02-10 05:42:00,29.0,21.0,-100.00,SW,223,9.0,12.0,69,0.00,,,-99.99,,2013-02-10 10:42:00,
2013-02-10 05:51:00,29.0,21.0,-100.00,SSW,206,11.0,14.0,68,0.00,,,-99.99,,2013-02-10 10:51:00,
2013-02-10 06:01:00,29.0,19.0,-100.00,SSW,208,11.0,14.0,67,0.00,,,-99.99,,2013-02-10 11:01:00,
2013-02-10 06:11:00,29.0,21.0,-100.00,SSW,200,11.0,14.0,67,0.00,,,-99.99,,2013-02-10 11:11:00,
2013-02-10 06:22:00,29.0,19.0,-100.00,SW,214,11.0,14.0,66,0.00,,,-99.99,,2013-02-10 11:22:00,
2013-02-10 06:32:00,31.0,23.0,-100.00,SSW,204,11.0,14.0,66,0.00,,,-99.99,,2013-02-10 11:32:00,
2013-02-10 06:42:00,31.0,23.0,-100.00,SSW,201,9.0,14.0,67,0.00,,,-99.99,,2013-02-10 11:42:00,
2013-02-10 06:52:00,31.0,23.0,-100.00,SSW,199,9.0,14.0,67,0.00,,,-99.99,,2013-02-10 11:52:00,
2013-02-10 07:02:00,32.0,23.0,-100.00,SSW,204,8.0,14.0,68,0.00,,,-99.99,,2013-02-10 12:02:00,
2013-02-10 07:12:00,32.0,23.0,-100.00,SSW,199,6.0,14.0,67,0.00,,,-99.99,,2013-02-10 12:12:00,
2013-02-10 07:22:00,32.0,23.0,-100.00,SW,214,7.0,14.0,68,0.00,,,-99.99,,2013-02-10 12:22:00,
2013-02-10 07:32:00,31.0,23.0,-100.00,SSW,211,8.0,14.0,67,0.00,,,-99.99,,2013-02-10 12:32:00,
2013-02-10 07:42:00,32.0,23.0,-100.00,South,184,6.0,14.0,67,0.00,,,-99.99,,2013-02-10 12:42:00,
2013-02-10 07:52:00,30.0,21.0,-100.00,South,189,4.0,14.0,66,0.00,,,-99.99,,2013-02-10 12:52:00,
2013-02-10 08:02:00,30.0,21.0,-100.00,South,184,4.0,14.0,67,0.00,,,-99.99,,2013-02-10 13:02:00,
2013-02-10 08:12:00,31.0,21.0,-100.00,SE,141,6.0,14.0,66,0.00,,,-99.99,,2013-02-10 13:12:00,
2013-02-10 08:21:00,32.0,25.0,-100.00,SE,145,7.0,14.0,71,0.00,,,-99.99,,2013-02-10 13:21:00,
2013-02-10 08:31:00,32.0,25.0,-100.00,SW,218,10.0,14.0,69,0.00,,,-99.99,,2013-02-10 13:31:00,
2013-02-10 08:41:00,33.0,23.0,-100.00,SSW,211,9.0,14.0,64,0.00,,,-99.99,,2013-02-10 13:41:00,
2013-02-10 08:51:00,31.0,21.0,-100.00,SSW,196,11.0,14.0,62,0.00,,,-99.99,,2013-02-10 13:51:00,
2013-02-10 09:02:00,32.0,21.0,-100.00,SW,221,11.0,14.0,63,0.00,,,-99.99,,2013-02-10 14:02:00,
2013-02-10 09:11:00,32.0,21.0,-100.00,SW,220,13.0,14.0,62,0.00,,,-99.99,,2013-02-10 14:11:00,
2013-02-10 09:22:00,33.0,21.0,-100.00,SSW,213,17.0,22.0,60,0.00,,,-99.99,,2013-02-10 14:22:00,
2013-02-10 09:32:00,33.0,23.0,-100.00,South,190,11.0,22.0,62,0.00,,,-99.99,,2013-02-10 14:32:00,
2013-02-10 09:42:00,33.0,23.0,-100.00,SSW,197,12.0,22.0,62,0.00,,,-99.99,,2013-02-10 14:42:00,
2013-02-10 09:52:00,34.0,23.0,-100.00,SSW,192,11.0,22.0,60,0.00,,,-99.99,,2013-02-10 14:52:00,
2013-02-10 10:02:00,34.0,21.0,-100.00,SSW,199,11.0,22.0,58,0.00,,,-99.99,,2013-02-10 15:02:00,
2013-02-10 10:11:00,34.0,21.0,-100.00,SSW,211,12.0,22.0,58,0.00,,,-99.99,,2013-02-10 15:11:00,
2013-02-10 10:22:00,35.0,21.0,-100.00,South,186,13.0,22.0,56,0.00,,,-99.99,,2013-02-10 15:22:00,
2013-02-10 10:32:00,35.0,21.0,-100.00,South,184,14.0,22.0,56,0.00,,,-99.99,,2013-02-10 15:32:00,
2013-02-10 10:42:00,36.0,21.0,-100.00,SSW,210,12.0,22.0,55,0.00,,,-99.99,,2013-02-10 15:42:00,
2013-02-10 10:52:00,38.0,25.0,-100.00,SW,216,13.0,22.0,56,0.00,,,-99.99,,2013-02-10 15:52:00,
2013-02-10 11:02:00,39.0,25.0,-100.00,SSW,207,13.0,22.0,55,0.00,,,-99.99,,2013-02-10 16:02:00,
2013-02-10 11:12:00,38.0,23.0,-100.00,SW,214,13.0,22.0,53,0.00,,,-99.99,,2013-02-10 16:12:00,
2013-02-10 11:22:00,41.0,25.0,-100.00,SW,214,13.0,22.0,50,0.00,,,-99.99,,2013-02-10 16:22:00,
2013-02-10 11:32:00,40.0,21.0,-100.00,SW,223,12.0,22.0,47,0.00,,,-99.99,,2013-02-10 16:32:00,
2013-02-10 11:42:00,40.0,23.0,-100.00,SW,234,10.0,22.0,49,0.00,,,-99.99,,2013-02-10 16:42:00,
2013-02-10 11:52:00,39.0,23.0,-100.00,SW,234,11.0,22.0,50,0.00,,,-99.99,,2013-02-10 16:52:00,
2013-02-10 12:02:00,39.0,25.0,-100.00,SW,231,9.0,22.0,53,0.00,,,-99.99,,2013-02-10 17:02:00,
2013-02-10 12:12:00,38.0,23.0,-100.00,South,189,9.0,22.0,54,0.00,,,-99.99,,2013-02-10 17:12:00,
2013-02-10 12:22:00,39.0,25.0,-100.00,SW,216,11.0,22.0,53,0.00,,,-99.99,,2013-02-10 17:22:00,
2013-02-10 12:32:00,39.0,25.0,-100.00,SSW,206,12.0,22.0,54,0.00,,,-99.99,,2013-02-10 17:32:00,
2013-02-10 12:42:00,40.0,25.0,-100.00,SSW,208,12.0,22.0,53,0.00,,,-99.99,,2013-02-10 17:42:00,
2013-02-10 12:52:00,41.0,25.0,-100.00,SSW,204,13.0,22.0,51,0.00,,,-99.99,,2013-02-10 17:52:00,
2013-02-10 13:02:00,41.0,25.0,-100.00,SSW,207,12.0,22.0,49,0.00,,,-99.99,,2013-02-10 18:02:00,
2013-02-10 13:12:00,42.0,23.0,-100.00,SW,221,12.0,22.0,47,0.00,,,-99.99,,2013-02-10 18:12:00,
2013-02-10 13:22:00,42.0,27.0,-100.00,SSW,210,11.0,22.0,50,0.00,,,-99.99,,2013-02-10 18:22:00,
2013-02-10 13:32:00,42.0,25.0,-100.00,SW,235,11.0,22.0,49,0.00,,,-99.99,,2013-02-10 18:32:00,
2013-02-10 13:42:00,42.0,25.0,-100.00,SSW,213,11.0,22.0,49,0.00,,,-99.99,,2013-02-10 18:42:00,
2013-02-10 13:52:00,42.0,25.0,-100.00,SSW,204,11.0,22.0,49,0.00,,,-99.99,,2013-02-10 18:52:00,
2013-02-10 14:02:00,42.0,25.0,-100.00,SW,227,11.0,22.0,47,0.00,,,-99.99,,2013-02-10 19:02:00,
2013-02-10 14:12:00,45.0,27.0,-100.00,WSW,238,9.0,22.0,46,0.00,,,-99.99,,2013-02-10 19:12:00,
2013-02-10 14:22:00,43.0,27.0,-100.00,SW,223,11.0,22.0,50,0.00,,,-99.99,,2013-02-10 19:22:00,
2013-02-10 14:32:00,43.0,27.0,-100.00,SW,216,11.0,22.0,50,0.00,,,-99.99,,2013-02-10 19:32:00,
2013-02-10 14:43:00,42.0,27.0,-100.00,SSW,208,11.0,22.0,50,0.00,,,-99.99,,2013-02-10 19:43:00,
2013-02-10 14:52:00,43.0,27.0,-100.00,SSW,193,9.0,22.0,50,0.00,,,-99.99,,2013-02-10 19:52:00,
2013-02-10 15:02:00,43.0,27.0,-100.00,SSW,203,7.0,22.0,50,0.00,,,-99.99,,2013-02-10 20:02:00,
2013-02-10 15:11:00,43.0,27.0,-100.00,SW,216,8.0,22.0,50,0.00,,,-99.99,,2013-02-10 20:11:00,
2013-02-10 15:22:00,43.0,27.0,-100.00,SW,217,8.0,22.0,51,0.00,,,-99.99,,2013-02-10 20:22:00,
2013-02-10 15:32:00,43.0,27.0,-100.00,South,183,7.0,22.0,49,0.00,,,-99.99,,2013-02-10 20:32:00,
2013-02-10 15:42:00,44.0,27.0,-100.00,SSW,193,7.0,22.0,50,0.00,,,-99.99,,2013-02-10 20:42:00,
2013-02-10 15:52:00,45.0,28.0,-100.00,SSW,199,7.0,22.0,50,0.00,,,-99.99,,2013-02-10 20:52:00,
2013-02-10 16:02:00,45.0,28.0,-100.00,SSW,207,10.0,22.0,49,0.00,,,-99.99,,2013-02-10 21:02:00,
2013-02-10 16:12:00,45.0,28.0,-100.00,SSW,207,10.0,22.0,49,0.00,,,-99.99,,2013-02-10 21:12:00,
2013-02-10 16:22:00,45.0,28.0,-100.00,SW,220,9.0,22.0,49,0.00,,,-99.99,,2013-02-10 21:22:00,
2013-02-10 16:32:00,45.0,28.0,-100.00,SW,224,9.0,22.0,49,0.00,,,-99.99,,2013-02-10 21:32:00,
2013-02-10 16:42:00,45.0,28.0,-100.00,SSW,213,9.0,22.0,49,0.00,,,-99.99,,2013-02-10 21:42:00,
2013-02-10 16:52:00,44.0,28.0,-100.00,SSW,207,9.0,22.0,51,0.00,,,-99.99,,2013-02-10 21:52:00,
2013-02-10 17:02:00,45.0,28.0,-100.00,SSW,201,10.0,22.0,51,0.00,,,-99.99,,2013-02-10 22:02:00,
2013-02-10 17:12:00,44.0,27.0,-100.00,SSW,193,11.0,22.0,49,0.00,,,-99.99,,2013-02-10 22:12:00,
2013-02-10 17:22:00,44.0,28.0,-100.00,SSW,197,9.0,22.0,50,0.00,,,-99.99,,2013-02-10 22:22:00,
2013-02-10 17:32:00,44.0,27.0,-100.00,SSW,196,9.0,22.0,49,0.00,,,-99.99,,2013-02-10 22:32:00,
2013-02-10 17:42:00,44.0,27.0,-100.00,South,184,9.0,22.0,50,0.00,,,-99.99,,2013-02-10 22:42:00,
2013-02-10 17:52:00,44.0,27.0,-100.00,SW,221,13.0,22.0,49,0.00,,,-99.99,,2013-02-10 22:52:00,
2013-02-10 18:02:00,44.0,27.0,-100.00,SSW,201,16.0,22.0,49,0.00,,,-99.99,,2013-02-10 23:02:00,
2013-02-10 18:12:00,44.0,27.0,-100.00,SSW,208,14.0,22.0,49,0.00,,,-99.99,,2013-02-10 23:12:00,
2013-02-10 18:22:00,43.0,27.0,-100.00,SSW,192,12.0,22.0,50,0.00,,,-99.99,,2013-02-10 23:22:00,
2013-02-10 18:32:00,44.0,27.0,-100.00,SSW,196,12.0,22.0,49,0.00,,,-99.99,,2013-02-10 23:32:00,
2013-02-10 18:42:00,44.0,27.0,-100.00,SSW,206,13.0,22.0,49,0.00,,,-99.99,,2013-02-10 23:42:00,
2013-02-10 18:52:00,44.0,27.0,-100.00,South,187,12.0,22.0,47,0.00,,,-99.99,,2013-02-10 23:52:00,
2013-02-10 19:02:00,45.0,25.0,-100.00,South,189,12.0,22.0,45,0.00,,,-99.99,,2013-02-11 00:02:00,
2013-02-10 19:11:00,45.0,27.0,-100.00,SSW,211,14.0,22.0,46,0.00,,,-99.99,,2013-02-11 00:11:00,
2013-02-10 19:22:00,45.0,27.0,-100.00,SW,217,16.0,22.0,46,0.00,,,-99.99,,2013-02-11 00:22:00,
2013-02-10 19:32:00,45.0,27.0,-100.00,SW,221,16.0,22.0,46,0.00,,,-99.99,,2013-02-11 00:32:00,
2013-02-10 19:42:00,45.0,27.0,-100.00,SW,218,15.0,22.0,47,0.00,,,-99.99,,2013-02-11 00:42:00,
2013-02-10 19:52:00,45.0,30.0,-100.00,SW,216,14.0,22.0,54,0.00,,,-99.99,,2013-02-11 00:52:00,
2013-02-10 20:01:00,44.0,28.0,-100.00,SSW,197,13.0,22.0,50,0.00,,,-99.99,,2013-02-11 01:01:00,
2013-02-10 20:11:00,46.0,30.0,-100.00,SSW,199,12.0,22.0,51,0.00,,,-99.99,,2013-02-11 01:11:00,
2013-02-10 20:21:00,47.0,32.0,-100.00,SSW,201,14.0,22.0,53,0.00,,,-99.99,,2013-02-11 01:21:00,
2013-02-10 20:32:00,48.0,30.0,-100.00,SSW,204,15.0,22.0,50,0.00,,,-99.99,,2013-02-11 01:32:00,
2013-02-10 20:42:00,47.0,28.0,-100.00,SW,227,16.0,22.0,45,0.00,,,-99.99,,2013-02-11 01:42:00,
2013-02-10 20:52:00,51.0,32.0,-100.00,SW,223,19.0,22.0,46,0.00,,,-99.99,,2013-02-11 01:52:00,
2013-02-10 21:01:00,50.0,32.0,-100.00,WSW,240,19.0,22.0,49,0.00,,,-99.99,,2013-02-11 02:01:00,
2013-02-10 21:11:00,50.0,32.0,-100.00,WSW,244,18.0,22.0,51,0.00,,,-99.99,,2013-02-11 02:11:00,
2013-02-10 21:21:00,50.0,34.0,-100.00,SW,223,19.0,22.0,56,0.00,,,-99.99,,2013-02-11 02:21:00,
2013-02-10 21:32:00,50.0,37.0,-100.00,SSW,206,19.0,22.0,63,0.00,,,-99.99,,2013-02-11 02:32:00,
2013-02-10 21:42:00,49.0,39.0,-100.00,WSW,238,23.0,30.0,71,0.00,,,-99.99,,2013-02-11 02:42:00,
2013-02-10 21:52:00,48.0,39.0,-100.00,West,261,22.0,30.0,72,0.00,,,-99.99,,2013-02-11 02:52:00,
2013-02-10 22:02:00,48.0,39.0,-100.00,SW,225,20.0,30.0,73,0.00,,,-99.99,,2013-02-11 03:02:00,
2013-02-10 22:11:00,47.0,37.0,-100.00,SW,232,19.0,19.0,73,0.00,,,-99.99,,2013-02-11 03:11:00,
2013-02-10 22:21:00,47.0,37.0,-100.00,SW,234,17.0,19.0,73,0.00,,,-99.99,,2013-02-11 03:21:00,
2013-02-10 22:32:00,48.0,39.0,-100.00,WSW,244,14.0,19.0,75,0.00,,,-99.99,,2013-02-11 03:32:00,
2013-02-10 22:42:00,48.0,39.0,-100.00,WSW,256,16.0,19.0,73,0.00,,,-99.99,,2013-02-11 03:42:00,
2013-02-10 22:52:00,48.0,39.0,-100.00,WSW,245,14.0,19.0,73,0.00,,,-99.99,,2013-02-11 03:52:00,
2013-02-10 23:02:00,48.0,39.0,-100.00,West,259,17.0,22.0,73,0.00,,,-99.99,,2013-02-11 04:02:00,
2013-02-10 23:11:00,48.0,39.0,-100.00,WSW,256,17.0,22.0,75,0.00,,,-99.99,,2013-02-11 04:11:00,
2013-02-10 23:22:00,48.0,39.0,-100.00,WSW,245,19.0,22.0,75,0.00,,,-99.99,,2013-02-11 04:22:00,
2013-02-10 23:32:00,48.0,39.0,-100.00,WSW,256,18.0,22.0,76,0.00,,,-99.99,,2013-02-11 04:32:00,
2013-02-10 23:42:00,45.0,37.0,-100.00,WSW,244,18.0,22.0,75,0.00,,,-99.99,,2013-02-11 04:42:00,
2013-02-10 23:52:00,45.0,37.0,-100.00,WSW,256,19.0,22.0,76,0.00,,,-99.99,,2013-02-11 04:52:00,